Location: DARK SKY Beskydy - Park tmavé oblohy, www.darkskybeskydy.cz
(49.4926°N, 18.5016°E)
Time: 03:31:40
(UTC+02:00)

A-11 Canister half - Pass Details

Date: 02 March 2024
Orbit: 1513 x 1686 km, 47.2° (Epoch: 24 April)

Event Time Altitude Azimuth Distance (km) Brightness Sun altitude
Rises 22:45:43 0° 206° (SSW) 4,908 - -44.6°
Reaches altitude 10° 22:49:15 10° 197° (SSW) 3,933 - -44.9°
Maximum altitude 22:57:55 34° 138° (SE) 2,532 - -45.4°
Drops below altitude 10° 23:06:34 10° 79° (E) 3,934 - -45.9°
Exits shadow 23:08:34 - 74° (ENE) 4,483 11.4 -46.0°
Sets 23:10:05 0° 70° (ENE) 4,909 11.7 -46.1°
